425P/Kowalski (2005)

Japanese version
Home page
Updated on August 21, 2021

---------------------------------------------------------------------

* Profile

Designation 425P/2005 W3
Discovery Date November 25, 2005
Magnitude 18.2 mag
Discoverer Richard Kowalski (Catalina Sky Survey)

* Orbital Elements

Epoch 2005 Aug. 18.0 TT = JDT 2453600.5                                         
T 2005 Aug. 23.05438 TT                                 Rudenko                 
q   3.0084176            (2000.0)            P               Q                  
n   0.06076657     Peri.  199.23574     +0.63934772     -0.75392306             
a   6.4075635      Node   211.56599     +0.73788108     +0.65684785             
e   0.5304896      Incl.   16.77811     +0.21625446     -0.01228467             
P  16.2                                                                         
From 138 observations 2005 Sept. 30-2021 July 20, mean residual 0".8.           

* Magnitudes Graph

        m1 = 12.0 + 5 log d + 10.0 log r

---------------------------------------------------------------------

The orbital elements are published on M.P.E.C. 2021-O66.
The magnitudes graphs are made with Comet for Windows.

---------------------------------------------------------------------

Copyright(C) Seiichi Yoshida (comet@aerith.net). All rights reserved.